Probability
0 0 0 0 0 0 0 0 0 0 0 0 0 0 0 0 0 0 0 0 0 0 0 0 0 0 0 1 2 3 3 3 3 3 2 1 0 0 0 0 1 2 3 4 6 5 2 0 0
0 0 0 0 0 0 0 0 0 0 0 0 0 0 0 0 0 0 0 0 0 0 0 0 0 0 0 0 1 2 3 3 3 3 2 1 0 0 0 0 1 3 3 4 4 4 1 0 0
0 0 0 0 0 0 0 0 0 0 0 0 0 0 0 0 0 0 0 0 0 0 0 0 0 0 0 0 0 1 1 2 3 3 2 1 0 0 0 0 1 2 2 2 2 2 1 0 0
0 0 0 0 0 0 0 0 0 0 0 0 0 0 0 0 0 0 0 0 0 0 0 0 0 0 0 0 0 0 0 1 1 2 1 1 1 1 0 0 1 1 1 1 1 2 2 1 1
0 0 0 0 0 0 0 0 0 0 0 0 0 0 0 0 0 0 0 0 0 0 0 0 1 1 0 0 0 0 0 0 1 1 1 0 1 1 0 0 0 0 1 1 2 3 3 2 2
0 0 0 0 0 0 0 0 0 0 0 0 0 0 0 0 0 0 0 0 0 0 0 0 1 1 0 0 0 0 0 1 1 1 1 0 0 0 0 0 0 1 2 3 3 3 3 3 3
0 0 0 0 0 0 0 0 0 0 0 0 0 0 0 0 0 0 0 0 0 0 0 0 1 1 0 0 0 0 0 0 0 1 1 0 0 0 0 0 0 1 2 3 3 3 3 3 3
0 0 0 0 0 0 0 0 0 0 0 0 0 0 0 0 0 0 0 0 0 0 0 0 0 0 0 0 0 0 0 0 0 0 0 0 0 0 0 0 0 1 2 3 3 3 3 3 3
0 0 0 0 0 0 0 0 0 0 0 0 0 0 0 0 0 0 0 0 0 0 0 0 0 0 0 0 0 0 0 0 0 0 0 0 0 0 0 0 0 0 1 3 3 3 3 2 2
0 0 0 0 0 0 0 0 0 0 0 0 0 0 0 0 0 0 0 0 0 0 0 0 0 0 0 0 0 0 0 0 0 0 0 0 0 0 0 0 0 0 1 2 2 2 1 1 1
0 0 0 0 0 0 0 0 0 0 0 0 0 0 0 0 0 0 0 0 0 0 0 0 0 0 0 0 0 0 0 0 0 0 0 0 0 0 0 0 0 0 0 1 1 1 0 0 0
0 0 0 0 0 0 0 0 0 0 0 0 0 0 0 0 0 0 0 0 0 0 0 0 0 0 0 0 0 0 0 0 0 0 0 0 0 0 0 0 0 0 0 0 0 0 0 0 0
0 0 0 0 0 0 0 0 0 0 0 0 0 0 0 0 0 0 0 0 0 0 0 0 0 0 0 0 0 0 0 0 0 0 0 0 0 0 0 0 0 0 0 0 0 0 0 0 0
0 0 0 0 0 0 0 0 0 0 0 0 0 0 0 0 0 0 0 0 0 0 0 0 0 0 0 0 0 0 0 0 0 0 0 0 0 0 0 0 0 0 0 0 0 0 0 0 0
0 0 0 0 0 0 0 0 0 0 0 0 0 0 0 0 0 0 0 0 0 0 0 0 0 0 0 0 0 0 0 0 0 0 0 0 0 0 0 0 0 0 0 0 0 0 0 0 0
0 0 0 0 0 0 0 0 0 0 0 0 0 0 0 0 0 0 0 0 0 0 0 0 0 0 0 0 0 0 0 0 0 0 0 0 0 0 0 0 0 0 0 0 0 0 0 0 0
0 0 0 0 0 0 0 0 0 0 0 0 0 0 0 0 0 0 0 0 0 0 0 0 0 0 0 0 0 0 0 0 0 0 0 0 0 0 0 0 0 0 0 0 0 0 0 0 0
0 0 0 0 0 0 0 0 0 0 0 0 0 0 0 0 0 0 0 0 0 0 0 0 0 0 0 0 0 0 0 0 0 0 0 0 0 0 0 0 0 0 0 0 0 0 0 0 0
0 0 0 0 0 0 0 0 0 0 0 0 0 0 0 0 0 0 0 0 0 0 0 0 0 0 0 0 0 0 0 0 0 0 0 0 0 0 0 0 0 0 0 0 0 0 0 0 0
0 0 0 0 0 0 0 0 0 0 0 0 0 0 0 0 0 0 0 0 0 0 0 0 0 0 0 0 0 0 0 0 0 0 0 0 0 0 0 0 0 0 0 0 0 0 0 0 0
0 0 0 0 0 0 0 0 0 0 0 0 0 0 0 0 0 0 0 0 0 0 0 0 0 0 0 0 0 0 0 0 0 0 0 0 0 0 0 0 0 0 0 0 0 0 0 0 0
0 0 0 0 0 0 0 0 0 0 0 0 0 0 0 0 0 0 0 0 0 0 0 0 0 0 0 0 0 0 0 0 0 0 0 0 0 0 0 0 0 0 0 0 0 0 0 0 0
0 0 0 0 0 0 0 0 0 0 0 0 0 0 0 0 0 0 0 0 0 0 0 0 0 0 0 0 0 0 0 0 0 0 0 0 0 0 0 0 0 0 0 0 0 0 0 0 0
0 0 0 0 0 0 0 0 0 0 0 0 0 0 0 0 0 0 0 0 0 0 0 0 0 0 0 0 0 0 0 0 0 0 0 0 0 0 0 0 0 0 0 0 0 0 0 0 0
0 0 0 0 0 0 0 0 0 0 0 0 0 0 0 0 0 0 0 0 0 0 0 0 0 0 0 0 0 0 0 0 0 0 0 0 0 0 0 0 0 0 0 0 0 0 0 0 0
0 0 0 0 0 0 0 0 0 0 0 0 0 0 0 0 0 0 0 0 0 0 0 0 0 0 0 0 0 0 0 0 0 0 0 0 0 0 0 0 0 0 0 0 0 0 0 0 0
0 0 0 0 0 0 0 0 0 0 0 0 0 0 0 0 0 0 0 0 0 0 0 0 0 0 0 0 0 0 0 0 0 0 0 0 0 0 0 0 0 0 0 0 0 0 0 0 0
0 0 0 0 0 0 0 0 0 0 0 0 0 0 0 0 0 0 0 0 0 0 0 0 0 0 0 0 0 0 0 0 0 0 0 0 0 0 0 0 0 0 0 0 0 0 0 0 0
0 0 0 0 0 0 0 0 0 0 0 0 0 0 0 0 0 0 0 0 0 0 0 0 0 0 0 0 0 0 0 0 0 0 0 0 0 0 0 0 0 0 0 0 0 0 0 0 0
0 0 0 0 0 0 0 0 0 0 0 0 0 0 0 0 0 0 0 0 0 0 0 0 0 0 0 0 0 0 0 0 0 0 0 0 0 0 0 0 0 0 0 0 0 0 0 0 0
Wind_Speed
1 0 2 3 6 6 4 2 2 3 4 4 7 9 7 5 4 4 2 3 5 4 2 3 5 6 6 6 7 7 8 8 9 9 9 9 9 9 9 9 9 9 10 10 9 9 10 10 10
0 1 4 5 6 4 2 1 3 3 4 5 7 7 7 5 3 4 2 4 5 5 3 3 5 6 6 6 6 7 7 8 8 8 9 9 9 9 9 9 9 9 9 9 9 9 9 10 10
0 1 4 5 4 4 3 1 3 4 4 5 5 5 5 3 2 2 3 5 5 4 3 3 6 6 6 6 7 7 7 7 7 7 8 8 9 9 9 9 9 9 9 9 9 9 9 9 9
2 4 5 6 6 2 4 3 4 5 5 5 6 5 4 2 2 3 5 6 6 3 2 3 6 6 6 6 7 7 7 7 7 7 7 8 8 8 8 8 9 9 9 9 9 9 9 9 9
4 5 6 5 4 2 4 4 5 6 4 5 6 6 3 1 3 4 5 6 6 3 2 3 6 6 7 7 7 6 6 7 7 7 7 7 7 7 7 8 8 8 9 9 9 9 9 9 9
4 5 5 3 3 3 3 4 6 8 6 5 6 5 2 0 2 3 4 5 5 4 3 3 6 6 6 6 6 6 6 6 6 6 6 6 6 6 7 7 7 7 8 8 8 9 9 9 9
5 5 4 4 4 3 3 3 5 6 5 3 5 5 2 1 2 2 3 5 4 4 3 2 2 3 4 5 5 5 5 5 5 5 5 5 5 5 6 6 6 7 7 8 8 8 8 9 9
5 5 3 2 4 2 2 4 5 6 4 4 4 6 4 4 3 3 3 4 3 3 3 2 1 1 1 1 3 4 4 4 4 4 4 4 4 4 5 5 5 6 7 7 7 7 7 8 9
5 6 3 2 4 3 3 5 4 4 6 4 3 4 5 6 5 4 3 2 2 3 2 2 2 2 2 1 1 2 2 2 2 2 4 3 2 2 2 3 5 6 6 6 7 7 8 8 8
5 4 2 3 5 5 4 4 4 5 6 4 4 4 5 6 5 4 3 3 3 3 2 2 2 2 2 1 1 1 1 1 1 1 1 1 1 1 2 3 5 6 6 6 7 8 7 6 4
4 5 3 4 6 6 5 3 3 7 3 4 6 6 6 5 4 4 3 3 3 3 3 2 2 2 2 1 1 1 1 1 1 2 2 2 2 2 2 2 3 3 4 3 4 5 3 3 3
5 4 5 5 5 5 4 4 3 4 5 6 8 9 7 6 5 4 4 3 3 3 3 2 2 2 2 2 1 1 1 1 1 1 2 2 2 2 2 1 2 2 2 3 3 3 4 4 4
5 4 4 5 5 5 5 4 4 3 5 7 8 7 7 6 5 4 4 4 4 3 2 3 3 3 2 2 1 2 1 1 1 2 2 3 2 2 2 2 2 2 2 3 3 3 4 4 4
4 5 4 4 4 4 6 3 4 3 6 8 8 7 7 6 6 4 3 3 3 3 3 3 4 3 3 2 2 2 1 2 2 2 2 3 3 3 3 3 2 2 2 3 3 4 4 4 4
4 4 1 1 3 3 5 2 3 6 7 9 8 7 6 6 6 6 6 6 5 5 4 3 4 3 4 3 3 2 2 2 3 2 3 3 3 3 3 3 2 2 3 3 3 4 4 4 4
2 2 1 3 4 3 6 3 5 6 8 8 7 6 6 5 6 6 6 6 6 5 4 3 4 4 4 3 3 2 2 2 2 2 2 3 3 4 3 3 2 2 3 3 3 3 4 4 3
2 1 3 3 3 3 4 5 5 6 8 8 7 6 5 5 5 5 6 7 6 6 5 4 4 4 3 3 3 2 2 2 2 2 2 3 3 4 3 3 2 3 3 3 3 3 3 3 3
3 3 3 4 4 4 4 5 5 7 8 8 7 6 6 6 6 6 6 7 6 5 5 5 4 4 3 3 3 2 3 2 2 2 2 3 2 3 4 3 3 3 3 3 3 3 3 2 2
3 3 3 4 4 5 5 6 6 7 6 7 7 7 7 6 5 5 6 6 6 5 5 5 4 3 3 2 2 2 1 1 1 1 2 3 3 3 3 3 3 3 3 3 3 3 3 2 2
2 2 2 3 2 4 4 6 5 7 9 9 10 9 8 6 4 4 5 5 6 5 5 5 5 4 3 2 2 2 2 1 0 1 2 2 2 2 3 3 2 2 3 3 3 3 2 1 1
2 3 3 3 1 1 1 4 3 3 4 4 6 8 8 9 9 7 6 5 6 6 6 6 5 4 3 3 2 2 2 2 2 2 1 1 1 2 3 3 3 2 2 2 2 2 3 1 0
3 3 3 1 1 2 2 2 6 3 2 4 5 6 7 7 7 7 7 6 6 6 6 6 5 4 3 4 4 4 3 2 1 1 1 1 0 2 2 3 3 2 2 2 2 2 2 2 1
4 2 0 0 1 1 1 2 6 0 3 5 6 6 7 7 8 9 8 8 7 6 6 5 5 4 3 4 5 4 3 2 1 1 1 0 0 1 2 2 2 2 2 2 2 2 2 2 2
1 4 5 5 4 2 4 3 5 3 6 6 5 6 7 7 7 7 7 6 5 5 5 5 5 4 3 4 4 5 4 3 2 1 1 1 0 0 0 2 2 2 2 2 2 2 2 1 1
5 6 4 5 3 5 3 2 6 5 5 7 8 7 7 7 8 7 7 7 6 6 5 5 5 3 3 4 4 4 5 4 4 4 3 2 1 1 1 1 2 2 2 2 2 2 1 1 1
2 7 5 3 4 5 3 2 5 3 3 4 6 6 7 7 7 8 9 8 7 7 6 6 5 4 4 4 4 3 4 3 3 3 3 3 2 2 2 2 2 2 2 2 2 1 1 1 1
2 2 5 5 1 2 3 2 4 2 2 2 4 5 7 7 8 8 8 7 7 7 6 7 7 5 4 4 4 3 3 3 3 3 3 3 2 2 3 3 2 2 2 2 2 1 1 2 1
4 4 4 3 1 2 3 3 4 3 3 2 4 6 6 6 7 7 7 7 6 6 5 5 6 6 5 4 4 3 4 4 3 3 3 3 3 3 3 3 2 2 2 2 2 1 1 2 1
1 1 3 3 4 4 3 6 6 7 6 5 5 6 7 7 8 7 6 6 5 5 5 5 5 4 4 4 3 3 3 3 3 3 4 4 3 3 3 4 3 3 2 2 2 2 2 2 1
4 4 5 3 3 3 3 7 4 5 4 5 4 3 4 6 6 6 6 5 5 5 5 5 5 4 4 3 3 3 2 2 2 3 3 4 3 3 3 4 3 3 3 2 3 2 2 2 2
Wind_Direction
284 104 87 60 54 55 58 23 77 54 52 55 68 78 80 65 85 126 233 139 139 141 133 110 98 88 86 83 82 85 86 79 74 72 72 72 74 83 86 87 88 88 86 84 81 80 81 78 79
38 99 64 59 78 80 53 57 76 78 123 118 81 78 75 69 84 113 126 146 139 141 137 118 105 97 95 92 89 89 91 87 82 78 76 76 77 81 87 88 87 89 89 87 84 82 82 82 81
304 92 78 65 79 118 136 166 118 82 78 89 76 55 69 89 91 133 168 154 133 130 131 123 113 108 104 100 96 92 91 90 87 84 81 79 81 82 85 87 89 90 89 86 85 83 80 84 83
74 51 57 71 83 115 140 142 119 95 64 62 90 67 56 63 124 150 152 138 125 127 139 133 121 116 115 108 99 94 93 92 90 89 84 82 83 85 86 87 88 90 90 89 86 83 79 80 80
67 70 63 70 83 90 106 117 111 98 85 78 89 93 71 1 114 128 138 138 132 136 149 138 122 118 120 115 109 105 102 98 95 89 87 85 84 86 89 94 94 94 93 91 88 84 80 77 74
59 68 82 92 92 83 84 100 92 91 103 101 98 102 105 225 128 139 141 138 143 151 152 132 124 123 123 120 116 112 108 104 100 93 88 85 86 89 89 99 101 100 99 98 93 85 83 77 73
100 88 107 124 102 90 111 103 98 108 106 112 120 103 125 236 173 140 129 131 141 149 144 147 132 121 125 129 126 122 113 104 100 97 92 88 88 92 91 98 104 107 108 105 99 91 86 79 78
122 97 84 100 109 104 115 100 107 105 107 119 106 126 172 206 174 122 105 111 128 132 137 160 154 136 136 136 140 134 127 117 108 106 107 98 93 95 91 92 105 111 113 111 102 93 86 81 77
86 79 98 142 137 136 118 99 92 81 92 78 80 136 165 159 142 119 99 82 102 121 134 148 158 174 188 205 161 138 131 126 113 103 103 81 45 49 70 89 106 110 112 108 100 91 86 79 73
80 99 144 159 149 141 119 115 124 93 83 79 80 96 125 134 132 135 141 141 130 128 140 147 150 157 160 147 89 14 43 50 71 83 92 67 67 55 76 70 94 97 98 92 89 87 81 71 60
107 134 131 113 125 122 108 95 101 117 116 160 154 149 136 130 134 144 154 150 149 146 137 129 138 124 103 92 89 56 48 53 57 69 94 86 72 57 56 52 48 61 73 66 68 68 66 70 71
104 122 125 130 129 120 122 115 100 131 176 173 158 152 146 150 161 164 157 149 139 133 131 127 119 99 98 92 71 68 67 60 60 65 89 95 87 80 79 69 57 54 65 73 68 71 69 72 74
103 120 123 132 129 130 120 126 128 142 148 142 140 141 152 162 171 177 161 149 133 129 129 131 111 106 98 85 78 75 59 65 64 70 85 98 100 101 96 81 79 80 78 81 78 77 79 75 72
150 136 139 144 139 137 128 135 122 177 150 143 147 157 169 170 170 164 156 155 147 145 141 130 119 122 111 96 80 74 62 54 62 67 84 93 97 100 97 85 82 79 80 82 85 83 83 75 73
123 113 98 178 166 163 124 107 187 188 158 157 164 173 177 176 166 174 176 168 162 153 145 134 128 114 110 104 89 83 69 68 62 59 74 86 93 93 95 94 87 79 85 85 79 72 71 73 69
89 91 206 246 186 172 132 209 225 182 161 169 178 182 182 187 180 184 178 166 160 149 146 135 119 109 106 103 96 86 74 70 64 54 64 76 85 97 95 92 87 88 85 84 85 78 77 70 64
42 174 223 265 209 168 156 214 225 185 173 181 187 186 184 191 190 186 177 164 157 155 148 127 114 115 107 99 96 93 81 70 66 60 62 73 79 87 93 89 94 95 88 82 96 82 91 88 73
215 211 224 233 223 172 188 225 222 200 186 188 187 186 187 189 200 183 168 160 152 149 138 131 125 121 111 93 81 67 60 49 52 64 67 79 85 87 90 91 84 86 88 76 82 90 80 92 90
197 208 238 244 214 174 205 229 222 205 195 193 193 190 194 200 201 167 159 154 145 142 134 136 131 137 122 109 106 97 83 44 33 52 72 79 89 93 94 96 91 88 94 97 99 96 81 71 90
218 231 268 286 200 166 219 253 237 205 202 195 192 193 192 189 171 161 157 152 150 150 149 147 149 152 149 146 151 153 149 130 86 37 54 66 82 99 109 111 109 103 103 94 93 100 98 83 88
248 209 221 235 340 38 105 316 287 251 207 193 189 189 188 181 178 173 161 159 153 154 160 158 160 157 155 145 117 91 67 48 38 23 12 1 72 100 111 120 118 114 119 133 137 132 131 150 295
256 241 210 193 91 265 170 264 277 249 193 196 194 186 186 180 171 171 163 161 163 169 162 156 161 158 158 146 137 137 137 152 207 213 236 305 67 112 126 134 135 133 132 140 160 142 144 141 173
224 249 255 250 167 318 300 184 286 238 214 223 206 188 184 174 169 173 171 169 167 165 161 162 159 158 159 153 152 149 150 178 188 172 171 278 337 97 124 139 140 140 143 147 146 130 130 143 156
127 34 22 40 65 316 246 174 270 236 216 212 205 191 179 172 168 170 169 161 158 155 155 156 156 164 164 159 156 156 161 166 158 171 184 221 277 324 122 145 140 147 151 160 161 150 145 145 136
70 73 24 1 6 261 263 162 246 245 214 192 190 187 177 171 165 165 162 165 165 163 163 158 156 167 176 169 170 171 173 174 180 189 192 192 199 233 226 163 157 158 166 163 152 139 158 158 148
170 136 154 205 238 281 327 216 257 258 210 179 175 170 164 171 173 174 176 176 177 175 171 165 171 180 182 178 184 188 181 179 190 192 184 192 201 210 199 173 168 171 167 153 139 126 160 147 158
149 175 174 151 264 285 296 298 313 359 55 128 149 153 173 180 180 180 179 177 179 180 181 179 178 183 187 188 183 190 195 189 194 197 190 199 206 203 184 173 167 171 169 163 149 145 172 155 161
159 161 96 112 173 278 293 252 237 228 209 185 169 179 189 187 184 181 179 182 184 184 183 181 182 186 192 193 196 194 201 196 194 186 195 199 198 193 175 174 169 171 170 163 149 151 165 143 165
180 149 127 135 164 168 246 267 227 196 196 189 193 192 193 189 187 185 184 185 179 174 174 178 184 189 194 197 198 194 203 199 193 198 200 197 198 192 184 178 172 174 178 166 150 167 163 162 190
186 185 150 160 239 189 195 267 278 182 178 169 180 200 198 188 184 183 182 177 174 177 177 181 185 191 200 197 185 188 198 191 192 205 206 195 194 196 190 181 174 182 188 179 168 183 184 178 187